TIME,DELAY(SENSOR),PRES,T(CTD),SAL,OXYGEN,RAWTEMP,T(OPTODE),TCPHASE,FLUOR,BETA(BETA700),BETA(BETA412),BETA(BETA440),CDOM,C(CSC),ED(ED412.40),ED(ED444.00),ED(ED489.70),ED(ED554.30),LU(LU411.80),LU(LU443.40),LU(LU489.60),LU(LU554.10),COMP,TILTX,TILTX(TILTY),CHECK
1351027123,5810,496.8599853515625000,7.0135998725891110,34.1170005798339840,92.6197433471679700,587.4338989257812000,6.9894518852233890,47.2917213439941400,52,105,87,81,77,15167,2147749979,2147423606,2148004096,2147873389,2147629787,2147078720,2148243794,2147199561,2936,4,13,58128
1351027240,5806,485.6900024414062500,7.1389999389648440,34.1175994873046900,98.1532135009765600,583.3651123046875000,7.1203351020812990,46.6302185058593750,50,104,85,79,78,15165,2147747273,2147421705,2148004644,2147871250,2147630564,2147079259,2148243556,2147197869,3424,4,13,46340
1351027343,5810,475.1199951171875000,7.3299999237060550,34.1198997497558600,102.5035018920898400,577.2800292968750000,7.3157920837402340,46.0746994018554700,51,107,90,81,79,15165,2147747565,2147426541,2148000402,2147872338,2147632438,2147086756,2148242843,2147202432,3544,4,13,28259
1351027446,5806,464.0599975585937500,7.5687999725341800,34.1110992431640600,108.7483978271484400,569.7664794921875000,7.5566768646240230,45.3155097961425800,51,104,89,81,77,15168,2147748626,2147423012,2148004169,2147872786,2147630208,2147080987,2148236288,2147202889,2757,4,13,64102
1351027569,5807,451.7000122070312500,7.7470998764038090,34.1120986938476560,115.2295989990234400,564.1840820312500000,7.7353310585021970,44.5797004699707000,51,105,86,81,77,15159,2147750235,2147422985,2148003419,2147872201,2147627648,2147085156,2148243611,2147205339,2230,4,13,28488
1351027715,5809,440.8599853515625000,7.8582000732421875,34.1136016845703100,121.1140975952148400,560.8214111328125000,7.8428168296813965,43.9580802917480500,51,105,89,79,77,15165,2147741970,2147421714,2148002834,2147874541,2147626907,2147080256,2148238957,2147206025,1730,4,13,60425
1351027907,5808,427.6600036621094000,8.1484003067016600,34.1095008850097660,129.1567993164062500,551.8189086914062000,8.1301040649414060,43.0596885681152340,50,105,89,80,76,15167,2147744557,2147419392,2148001627,2147870701,2147630409,2147086308,2148235922,2147205787,1017,4,13,59865
1351028046,5806,416.6000061035156000,8.3915004730224610,34.1049003601074200,138.5458068847656200,543.9362182617188000,8.3811063766479500,42.0939216613769500,50,106,85,80,75,15166,2147740571,2147423314,2148003785,2147872347,2147624329,2147090496,2148229174,2147203812,2941,4,13,45656
1351028218,5810,401.9599914550781000,8.6669998168945310,34.1050987243652340,151.8007965087890600,534.7669067382812000,8.6724395751953120,40.8315391540527340,50,103,88,80,74,15165,2147741897,2147421229,2148000996,2147874669,2147624155,2147096027,2148233965,2147205357,2473,5,13,52127
1351028333,5808,390.2099914550781000,8.9060001373291020,34.1063995361328100,160.4432983398437500,527.3508911132812000,8.9075832366943360,40.0237884521484400,50,106,85,81,74,15166,2147738944,2147420571,2148001947,2147873728,2147621769,2147091565,2148234166,2147203355,2314,4,13,39108
1351028448,5808,378.3900146484375000,9.4415998458862300,34.1143989562988300,171.0959014892578000,510.5421142578125000,9.4390068054199220,38.9394416809082000,50,106,85,80,72,15163,2147738496,2147424036,2148001216,2147871460,2147621805,2147095305,2148227830,2147204342,2584,4,14,39076
1351028553,5807,367.7200012207031000,9.7930002212524410,34.1236000061035160,180.3603973388672000,498.6871032714844000,9.8125772476196290,38.0823898315429700,50,106,89,81,72,15164,2147736475,2147422326,2147998628,2147872548,2147619574,2147103442,2148229558,2147204534,2839,4,14,65329
1351028656,5807,357.4299926757812500,10.1370000839233400,34.1343002319335940,190.8460998535156200,488.7688903808594000,10.1243600845336910,37.2133483886718750,50,105,84,79,71,15164,2147736146,2147422646,2148004425,2147874779,2147619017,2147098130,2148224960,2147205924,3545,4,13,3038
1351028771,5810,346.0199890136719000,10.5082998275756840,34.1478996276855500,199.6988067626953000,476.9144897460937500,10.4961595535278320,36.4540596008300800,50,104,87,81,71,15166,2147731254,2147422372,2148006198,2147871725,2147613760,2147106688,2148226624,2147205257,2957,4,13,57109
1351028888,5805,334.9200134277344000,10.8751001358032230,34.1600990295410160,204.4118957519531200,464.7171936035156000,10.8777799606323240,35.9654197692871100,48,104,89,81,70,15168,2147735515,2147424054,2148005970,2147867931,2147611849,2147108224,2148220708,2147206601,1886,3,14,52336
1351029003,5808,323.8999938964844000,11.0303001403808600,34.1682014465332000,207.7117004394531200,460.1495056152344000,11.0204496383667000,35.6940612792968750,49,103,90,79,70,15169,2147729161,2147424621,2148009142,2147871817,2147608320,2147106468,2148220242,2147209618,1155,4,13,50880
1351029118,5806,312.6900024414062500,11.4591999053955080,34.1833992004394500,210.4208984375000000,446.4407043457031000,11.4479303359985350,35.3126907348632800,48,105,89,80,70,15162,2147728612,2147424466,2148012809,2147871323,2147608804,2147113499,2148218093,2147207378,988,4,13,1878
1351029235,5809,301.8099975585937500,11.8413000106811520,34.2052001953125000,211.8338928222656200,432.6382141113281000,11.8772602081298830,35.0093803405761700,49,102,88,80,69,15166,2147728896,2147424832,2148020333,2147871360,2147606939,2147115638,2148221028,2147204032,2882,3,15,61830
1351029362,5811,291.0599975585937500,12.5150003433227540,34.2436981201171900,212.7032012939453000,410.2123107910156000,12.5727396011352540,34.6057586669921900,48,102,87,80,69,15163,2147729572,2147428973,2148029056,2147870994,2147602340,2147121755,2148221348,2147210477,3555,4,14,46314
1351029503,5806,280.5000000000000000,13.1173000335693360,34.2868995666503900,215.5708007812500000,393.0914001464844000,13.1021099090576170,34.1775588989257800,48,102,86,80,68,15162,2147724233,2147431277,2148037558,2147874148,2147598326,2147132790,2148225170,2147212416,1086,4,13,48738
1351029666,5807,269.9400024414062500,13.3240003585815430,34.3101005554199200,216.9048004150390600,385.2811889648437500,13.3431797027587890,33.9832801818847660,49,104,88,81,69,15164,2147724425,2147437037,2148050697,2147868864,2147599341,2147135844,2148229824,2147215332,3522,3,14,59591
1351029849,5809,257.6199951171875000,14.3299999237060550,34.3993988037109400,216.2212066650390600,353.2257995605469000,14.3301696777343750,33.5359802246093750,48,103,85,79,68,15160,2147720667,2147444525,2148079570,2147871972,2147593334,2147147254,2148245046,2147212964,3044,3,13,25666
1351029976,5805,246.5899963378906200,14.7624998092651370,34.4462013244628900,216.8238983154297000,339.3552856445312500,14.7561798095703120,33.2959709167480500,49,103,88,80,67,15160,2147721883,2147458852,2148110966,2147872109,2147590336,2147158976,2148253513,2147213942,2155,3,14,56627
1351030105,5810,235.1799926757812500,15.7511997222900390,34.5435981750488300,212.3619995117187500,307.1716918945312500,15.7426700592041020,33.0705299377441400,49,103,85,80,66,15155,2147723300,2147475766,2148159341,2147870701,2147586395,2147168832,2148270528,2147218368,1149,3,14,29947
1351030232,5809,224.7700042724609400,16.3339996337890620,34.5910987854003900,213.1112060546875000,287.1666870117187500,16.3547706604003900,32.7394485473632800,50,104,85,80,66,15156,2147721517,2147501056,2148221586,2147869613,2147585353,2147193133,2148301769,2147218532,2726,2,14,37287
1351030427,5809,210.7599945068359400,17.0790004730224600,34.6986007690429700,212.3927001953125000,263.9408874511719000,17.0646800994873050,32.4481010437011700,50,105,87,81,67,15153,2147728758,2147556498,2148335369,2147873600,2147580708,2147227968,2148351149,2147222994,1194,3,15,27773
1351030554,5807,199.7200012207031200,17.9342994689941400,34.7943000793457000,211.1716003417968800,235.7911071777343800,17.9244899749755860,32.1195182800293000,51,107,86,82,66,15149,2147741769,2147627099,2148487689,2147873682,2147588096,2147272539,2148420809,2147227008,121,3,14,62638
1351030609,5807,194.9100036621093800,18.0095996856689450,34.8054008483886700,210.7259063720703000,231.1002960205078000,18.0677394866943360,32.0784111022949200,51,107,88,81,66,15150,2147755520,2147667382,2148566217,2147871808,2147591040,2147299776,2148463049,2147232018,3300,3,15,9353
1351030664,5808,189.8699951171875000,18.4332008361816400,34.8535003662109400,209.1358947753906200,218.6676940917968800,18.4474105834960940,31.9939002990722660,54,108,88,81,66,15142,2147770011,2147725833,2148682029,2147875638,2147597156,2147330203,2148507931,2147237769,62,4,13,2011
1351030739,5808,183.6499938964843800,19.1749992370605470,34.9398994445800800,208.2978973388672000,195.4208984375000000,19.1574802398681640,31.7199802398681640,57,110,88,81,64,15137,2147793920,2147805229,2148823369,2147872310,2147601563,2147372699,2148570916,2147241526,43,3,13,46545
1351030794,5811,179.4400024414062500,19.3355998992919920,34.9701004028320300,209.7731933593750000,188.4176025390625000,19.3714694976806640,31.5429801940917970,56,111,93,82,64,15138,2147817234,2147865033,2148930130,2147874596,2147611026,2147411748,2148626157,2147249371,3219,2,14,10863
1351030849,5807,175.1499938964843800,19.6315994262695300,35.0003013610839840,211.9510955810547000,180.1051025390625000,19.6255302429199220,31.3118190765380860,60,111,89,80,63,15137,2147846272,2147943753,2149055899,2147877174,2147620754,2147461595,2148678244,2147252452,2360,3,15,34780
1351030904,5806,170.8600006103515600,19.8792991638183600,35.0312995910644500,211.5088958740234400,172.2032012939453000,19.8671302795410160,31.2284793853759770,61,109,89,80,65,15131,2147892370,2148060114,2149267081,2147876388,2147636352,2147519478,2148781568,2147259931,2684,3,15,141
1351030959,5810,166.6999969482422000,20.1590003967285160,35.0688018798828100,212.4084014892578000,162.7238006591797000,20.1570796966552730,31.0525302886962900,64,109,88,82,64,15130,2147946578,2148176932,2149472064,2147875181,2147657334,2147590619,2148872566,2147266121,3114,2,15,2945
1351031014,5810,162.7500000000000000,20.4008998870849600,35.1063995361328100,214.8394012451172000,155.3645019531250000,20.3822898864746100,30.8246307373046880,67,111,88,81,63,15127,2147997001,2148289472,2149661942,2147876032,2147676224,2147653293,2148959350,2147274358,2810,3,15,64288
1351031093,5805,157.7299957275390600,20.5175991058349600,35.1249008178710940,216.9187011718750000,151.2113952636718800,20.5094203948974600,30.6600303649902340,68,108,87,81,62,15130,2148083730,2148455085,2149934180,2147880804,2147713225,2147757440,2149087652,2147284443,2934,2,15,53646
1351031160,5807,154.4799957275390600,20.5491008758544920,35.1302986145019500,218.3193969726562500,149.9723968505859400,20.5473594665527340,30.5708808898925780,67,110,86,80,62,15126,2148160329,2148596004,2150148662,2147881298,2147748726,2147839360,2149188086,2147290770,2659,2,15,34166
1351031239,5803,150.8500061035156200,20.6805992126464840,35.1487007141113300,219.1779937744140600,145.6448059082031200,20.6798896789550780,30.4693908691406250,68,110,89,80,63,15121,2148272009,2148777865,2150438784,2147882788,2147796434,2147942107,2149322486,2147302784,2723,3,16,20266
1351031330,5809,146.8500061035156200,20.8435001373291000,35.1715011596679700,221.0829010009765600,140.2229003906250000,20.8459796905517580,30.3002796173095700,71,109,87,80,62,15119,2148415305,2148998765,2150775981,2147886162,2147859620,2148075821,2149486701,2147320009,2369,2,15,33304
1351031423,5811,142.2899932861328000,21.0216007232666000,35.1924018859863300,222.3173980712890600,134.1587982177734400,21.0318298339843750,30.1582508087158200,77,111,87,81,62,15116,2148644754,2149363282,2151335588,2147891209,2147961444,2148285942,2149751268,2147337682,1513,2,15,62456
1351031502,5808,138.4700012207031200,21.2889995574951170,35.2234992980957000,222.7344055175781200,126.1958999633789000,21.2760105133056640,30.0331897735595700,80,114,90,81,63,15115,2148870381,2149697197,2151845577,2147896036,2148067776,2148480420,2149983908,2147354541,1019,2,16,58481
1351031593,5811,134.5299987792968800,21.4468002319335940,35.2375984191894500,225.5605926513672000,120.7855987548828100,21.4420108795166000,29.8217506408691400,87,116,88,82,62,15102,2149134336,2150067565,2152392429,2147902445,2148188534,2148691821,2150245284,2147373110,1468,2,16,59608
1351031684,5808,131.0099945068359400,21.5494003295898440,35.2351989746093750,228.9718017578125000,117.6437988281250000,21.5384502410888670,29.6142501831054700,90,124,88,82,61,15104,2149461129,2150522313,2153062811,2147913700,2148327817,2148931410,2150529929,2147400429,1002,2,15,37529
1351031801,5808,127.3000030517578100,21.6018009185791000,35.2275009155273440,229.3605041503906200,115.7009963989257800,21.5980892181396500,29.5702095031738280,95,116,91,82,62,15096,2149918262,2151099309,2153888073,2147924269,2148518354,2149222244,2150886884,2147431488,875,2,15,25014
1351031952,5809,124.4800033569336000,21.8290996551513670,35.2403984069824200,231.5881042480468800,108.5063018798828100,21.8190803527832030,29.3708400726318360,96,117,90,82,62,15090,2150285266,2151446582,2154306514,2147935981,2148654966,2149361920,2151048859,2147447131,2752,2,15,18258
1351032110,5806,119.4899978637695300,22.0750999450683600,35.2467994689941400,232.9709930419922000,99.5745468139648400,22.0936393737792970,29.1906394958496100,100,118,92,83,61,15081,2151336676,2152699794,2156021266,2147964032,2149083739,2149963757,2151762688,2147510884,2741,2,16,50600
1351032201,5810,115.8899993896484400,22.5445995330810550,35.2263984680175800,235.1076965332031200,86.6161727905273400,22.4924697875976560,28.9255409240722660,108,122,89,83,60,15069,2152095341,2153575579,2157169618,2147985344,2149400146,2150385472,2152240521,2147552969,3468,2,16,15063
1351032340,5808,112.4499969482421900,22.7632999420166000,35.2120018005371100,238.8619995117187500,78.8816070556640600,22.7308006286621100,28.6547698974609380,115,119,89,83,61,15061,2152905618,2154603227,2158545645,2148014747,2149726436,2150854701,2152774134,2147601947,394,3,15,1938
1351032479,5806,107.9499969482421900,22.8318996429443360,35.2037010192871100,241.1873016357422000,75.8754196166992200,22.8234996795654300,28.5115604400634770,127,122,90,83,61,15035,2154456731,2156494582,2160910683,2148071570,2150366893,2151676864,2153682477,2147689618,995,2,16,50434
1351032606,5811,104.2099990844726600,23.0687999725341800,35.1995010375976560,241.3117065429687500,68.3400192260742200,23.0560207366943360,28.4115791320800780,132,132,91,83,60,15033,2156172909,2158392438,2163168694,2148134134,2151032210,2152421851,2154492096,2147779520,682,2,15,40524
1351032804,5806,100.2600021362304700,23.6611003875732420,35.2378005981445300,243.9555969238281200,49.4025917053222660,23.6414203643798830,28.0577507019042970,112,123,91,83,61,15036,2158466240,2160857389,2165894592,2148214272,2152031625,2153500708,2155661476,2147895963,330,2,15,38848
1351032859,5806,98.9499969482421900,23.7745990753173830,35.2393989562988300,244.1130981445312500,45.5928993225097660,23.7593803405761720,28.0035400390625000,114,122,93,84,60,15037,2159366656,2161868233,2167011437,2148247981,2152454354,2153964068,2156113069,2147942034,716,2,15,58338
1351032938,5805,97.3600006103515600,23.9922008514404300,35.2387008666992200,244.5579986572265600,39.1008682250976560,23.9605598449707030,27.9037609100341800,109,121,91,85,60,15035,2160257664,2162775872,2167976338,2148280283,2152855113,2154392649,2156582555,2147992923,3423,2,16,59710
1351033052,5808,95.1100006103515600,24.1888008117675780,35.2495002746582000,245.5131988525390600,32.1216201782226560,24.1770591735839840,27.7757492065429700,111,121,91,85,61,15026,2162161984,2164742180,2169889097,2148357440,2153706834,2155258304,2157400896,2148085403,2781,2,16,45124
1351033119,5806,93.0699996948242200,24.3656997680664060,35.2350006103515600,245.3867034912109400,27.3807792663574220,24.3242702484130860,27.7229003906250000,108,123,91,85,59,15023,2164136137,2167027254,2172345892,2148446500,2154690523,2156340214,2158464859,2148200768,2029,2,16,27111
1351033186,5804,91.3600006103515600,24.4127998352050780,35.2321014404296900,245.5182952880859400,25.0074501037597660,24.3980102539062500,27.6878204345703120,107,123,91,85,59,15024,2165934226,2168896987,2174388964,2148516022,2155519030,2157251163,2159334710,2148289444,890,2,16,44177
1351033277,5807,89.3499984741211000,24.6044998168945300,35.2182998657226560,245.2758026123047000,20.5264396667480470,24.5373096466064450,27.6433906555175780,104,128,94,85,59,15021,2167945142,2170999286,2176497755,2148614957,2156601161,2158393289,2160424338,2148400676,841,2,16,63581
1351033379,5807,87.1699981689453100,24.7870998382568360,35.1433982849121100,244.8049926757812500,13.6802597045898440,24.7503509521484380,27.5799293518066400,97,126,91,84,59,15015,2170467328,2173605696,2178815478,2148732132,2158125421,2159915181,2161730825,2148538331,1232,2,16,24234
1351033482,5816,85.6999969482421900,24.9302997589111330,35.0886993408203100,243.4940032958984400,8.9578981399536130,24.8974494934082030,27.5791206359863280,97,128,92,85,58,14988,2171871725,2175128969,2180230848,2148804790,2159045696,2160844480,2162563821,2148619977,1789,2,16,62528
1351033693,5807,82.7699966430664000,24.9522991180419920,35.0578002929687500,241.6544036865234400,7.2926759719848630,24.9493503570556640,27.6396198272705080,89,128,90,86,59,14999,2176467904,2179793206,2185038912,2149067465,2161734692,2163674861,2165096978,2148885193,465,1,16,26023
1351033748,5810,80.9000015258789000,24.9831008911132800,35.0388984680175800,240.8872985839843800,6.3404741287231445,24.9790401458740230,27.6618309020996100,88,130,93,85,58,15014,2179183652,2182669421,2187929856,2149236864,2163499748,2165495177,2166700973,2149062052,371,1,16,52423
1351033815,5807,79.0000000000000000,25.0561008453369140,35.0364990234375000,239.7407989501953000,4.0969672203063965,25.0489997863769530,27.6852092742919920,89,128,92,84,56,15003,2181800073,2185434925,2190661824,2149440740,2165402221,2167330578,2168196068,2149221613,239,2,16,14872
1351033894,5810,77.3600006103515600,25.1079006195068360,35.0364990234375000,239.0413970947265600,2.3524758815765380,25.1034202575683600,27.6948394775390620,84,129,92,85,60,15016,2184245988,2187871030,2192855241,2149619849,2167377225,2169278281,2169837613,2149386002,3316,2,16,14752
1351033984,5808,74.8499984741211000,25.1536998748779300,35.0348014831543000,238.5050048828125000,0.8207113146781921,25.1512203216552730,27.7000808715820300,79,128,94,85,57,15003,2189641947,2193496009,2198199972,2150009316,2171718537,2173482441,2173148745,2149732096,2963,2,16,36404
1351034039,5810,72.5000000000000000,25.2185001373291000,35.0336990356445300,238.2678985595703000,-0.9537755846977234,25.2066192626953120,27.6888008117675780,77,128,93,86,56,15004,2193903405,2197849444,2202165595,2150402889,2175362084,2176846784,2175530276,2150001353,2763,2,16,61004
1351034094,5807,70.0699996948242200,25.2933006286621100,35.0364990234375000,238.0975036621093800,-3.1519439220428467,25.2752609252929700,27.6695194244384770,74,127,93,85,57,15000,2198924708,2203013888,2207014107,2150879515,2179883190,2181183744,2178878573,2150381083,2480,2,16,34654
1351034149,5810,67.6600036621093800,25.3654994964599600,35.0368003845214840,237.8643035888672000,-5.4358720779418945,25.3466091156005860,27.6518592834472660,72,127,94,85,58,15003,2203810806,2207494665,2210936960,2151373686,2184584603,2185793810,2182486272,2150768896,2655,2,16,51594
1351034204,5809,65.3399963378906200,25.4388999938964840,35.0414009094238300,237.5617065429687500,-8.1065025329589840,25.4300804138183600,27.6326599121093750,71,124,94,85,56,15001,2209203757,2212628096,2215903881,2151945060,2189293385,2190374994,2185971108,2151175076,3118,2,16,22568
1351034261,5810,63.0200004577636700,25.4587993621826170,35.0429000854492200,237.5471954345703000,-8.9347867965698240,25.4559803009033200,27.6230697631835940,71,125,93,86,57,14997,2216648128,2220550656,2224058066,2152835245,2194950601,2195747876,2189996214,2151670930,2953,2,16,56289
1351034316,5808,60.7599983215332000,25.4827995300292970,35.0405998229980500,237.7256011962890600,-9.6945228576660160,25.4797401428222660,27.6056900024414060,70,124,94,86,57,15005,2221019154,2224720612,2227504539,2153516726,2200521746,2200819867,2193623789,2152104128,2638,2,16,49838
1351034371,5804,58.5099983215332000,25.4909992218017580,35.0320014953613300,238.1172027587890600,-10.0473003387451170,25.4907703399658200,27.5839900970459000,68,126,93,86,57,15001,2227226285,2231169152,2233763492,2154511067,2206910089,2206824676,2198000018,2152691757,2477,2,16,24556
1351034426,5807,56.3300018310546900,25.4944000244140620,35.0236015319824200,238.7413940429687500,-10.0802402496337890,25.4918003082275400,27.5557804107666000,66,126,94,87,56,15000,2232634788,2236129216,2237768932,2155581668,2213947812,2213377481,2202772553,2153378002,2228,1,16,13143
1351034481,5809,54.2299995422363300,25.5524997711181640,35.0298004150390600,238.5865936279297000,-12.2826404571533200,25.5606994628906250,27.5356693267822270,67,124,95,86,60,15000,2242525430,2246572827,2248154532,2157171419,2222158354,2220829412,2207850276,2154108470,1709,2,16,26466
1351034536,5807,52.2400016784668000,26.0419998168945300,35.1315002441406250,236.2789001464843800,-25.7663993835449220,25.9831695556640620,27.4736690521240230,66,125,89,84,59,14999,2248352667,2251508169,2253697856,2158395931,2228943232,2227490267,2213102811,2154793444,792,1,16,10034
1351034614,5807,49.7000007629394500,26.0862998962402340,35.1502990722656250,235.2353057861328000,-28.9188308715820300,26.0821208953857420,27.4820995330810550,61,120,94,86,58,15007,2255715593,2258805705,2261358921,2160747136,2240047734,2237190774,2219976658,2155917485,130,2,16,39675
1351034669,5807,47.1300010681152340,26.1166000366210940,35.1595993041992200,234.7357025146484400,-30.0351791381835940,26.1171703338623050,27.4911708831787100,61,118,93,82,57,15004,2263474002,2266984283,2269674276,2163702756,2251577389,2247209124,2226823890,2157093851,59,2,15,318
1351034724,5757,44.3400001525878900,26.1229991912841800,35.1623992919921900,234.4640045166015600,-30.3130092620849600,26.1258907318115230,27.4999504089355470,60,119,93,85,57,15007,2274739373,2278934070,2282214363,2167361974,2264069174,2257580928,2233497152,2158317083,141,2,16,21724
1351034779,5808,41.5900001525878900,26.1292991638183600,35.1637001037597660,234.3908996582031200,-30.5704898834228500,26.1339797973632800,27.5001106262207030,58,119,90,86,56,15004,2285843968,2290827218,2295057325,2171312301,2281248941,2273307099,2244723300,2160203245,103,2,16,34195
1351034834,5806,38.8600006103515600,26.1289005279541000,35.1650009155273440,234.4624938964843800,-30.6723709106445300,26.1371803283691400,27.4956798553466800,58,120,91,84,57,15001,2296010889,2300348562,2303784283,2175723693,2297431149,2287485494,2254370596,2162115556,127,2,16,3020
1351034889,5808,36.1800003051757800,26.1303005218505860,35.1638984680175800,234.4938049316406200,-30.7223396301269530,26.1387500762939450,27.4936408996582030,56,119,91,83,57,15002,2306337709,2311267346,2315176603,2181248320,2311632457,2299679771,2262580818,2164065014,3441,2,16,42836
1351034946,5806,33.3899993896484400,26.1313991546630860,35.1641998291015600,234.5319061279297000,-30.8741798400878900,26.1435203552246100,27.4900093078613280,55,123,93,87,56,14994,2318185014,2324385837,2330392676,2189920960,2329521051,2315365750,2273374134,2167301860,3314,1,16,5331
1351035001,5805,30.6399993896484380,26.1320991516113280,35.1643981933593750,234.8347930908203000,-30.9673194885253900,26.1464405059814450,27.4751605987548830,55,118,89,84,57,14999,2328741549,2335775478,2342614555,2200439076,2349283291,2332814509,2285462171,2170104310,3203,1,16,19902
1351035056,5808,27.7999992370605470,26.1333007812500000,35.1641998291015600,234.8014068603515600,-30.9931907653808600,26.1472606658935550,27.4763393402099600,54,119,92,87,55,15001,2339509458,2345350866,2351390217,2207236068,2370345142,2351349028,2298169782,2173049481,3309,1,15,49887